When you browse on this site, cookies collect data to enhance your experience and personalize the content and advertising you see.
Visit our Privacy Policy to learn more. By continuing to use the site, you agree to this use of cookies and data.
  • In Deutschland
  • Länderverzeichnis
  • Für 7 Tage
  • Wassertemperatur
  • Wetterkarte
  • Widgets
  • user-avatar
    Anmelden

    Stündliche Wetter Orange Walk

    Heute, 20 Januar, Montag

    Zeit Temperatur Niederschläge Wind Luftdruck Luftfeuchtigkeit
    00:00 +23°C° 0 mm 1 m/S 761 mmHg 94%
    01:00 +22°C° 0 mm 1 m/S 761 mmHg 94%
    02:00 +22°C° 0 mm 1 m/S 761 mmHg 94%
    03:00 +22°C° 0 mm 1 m/S 761 mmHg 94%
    04:00 +22°C° 0 mm 1 m/S 761 mmHg 95%
    05:00 +22°C° 0 mm 1 m/S 761 mmHg 96%
    06:00 +22°C° 0 mm 1 m/S 762 mmHg 97%
    07:00 +23°C° 0 mm 1 m/S 762 mmHg 91%
    08:00 +25°C° 0 mm 2 m/S 762 mmHg 86%
    09:00 +26°C° 0 mm 2 m/S 763 mmHg 81%
    10:00 +27°C° 0.1 mm 2 m/S 763 mmHg 75%
    11:00 +29°C° 0.1 mm 2 m/S 762 mmHg 69%
    12:00 +30°C° 0.1 mm 2 m/S 762 mmHg 63%
    13:00 +30°C° 0.1 mm 2 m/S 762 mmHg 63%
    14:00 +30°C° 0.1 mm 2 m/S 761 mmHg 63%
    15:00 +30°C° 0.1 mm 2 m/S 760 mmHg 63%
    16:00 +28°C° 0.7 mm 1 m/S 760 mmHg 71%
    17:00 +27°C° 0.7 mm 1 m/S 761 mmHg 79%
    18:00 +23°C° 0.7 mm 0 m/S 761 mmHg 87%
    19:00 +24°C° 0.5 mm 1 m/S 762 mmHg 89%
    20:00 +23°C° 0.5 mm 2 m/S 762 mmHg 92%
    21:00 +22°C° 0.5 mm 3 m/S 763 mmHg 94%
    22:00 +22°C° 0 mm 3 m/S 763 mmHg 95%
    23:00 +21°C° 0 mm 3 m/S 763 mmHg 95%

    Morgen, 21 Januar, Dienstag

    Zeit Temperatur Niederschläge Wind Luftdruck Luftfeuchtigkeit
    00:00 +21°C° 0 mm 3 m/S 762 mmHg 95%
    01:00 +21°C° 0 mm 3 m/S 762 mmHg 95%
    02:00 +20°C° 0 mm 2 m/S 762 mmHg 96%
    03:00 +20°C° 0 mm 2 m/S 762 mmHg 96%
    04:00 +20°C° 0 mm 2 m/S 762 mmHg 95%
    05:00 +20°C° 0 mm 3 m/S 763 mmHg 94%
    06:00 +20°C° 0 mm 3 m/S 763 mmHg 92%
    07:00 +20°C° 0 mm 3 m/S 764 mmHg 89%
    08:00 +20°C° 0 mm 4 m/S 764 mmHg 85%
    09:00 +21°C° 0 mm 4 m/S 765 mmHg 82%
    10:00 +22°C° 0 mm 4 m/S 765 mmHg 75%
    11:00 +25°C° 0 mm 3 m/S 764 mmHg 68%
    12:00 +26°C° 0 mm 3 m/S 764 mmHg 62%
    13:00 +26°C° 0 mm 3 m/S 763 mmHg 60%
    14:00 +27°C° 0 mm 2 m/S 763 mmHg 58%
    15:00 +27°C° 0 mm 2 m/S 762 mmHg 56%
    16:00 +26°C° 0 mm 2 m/S 762 mmHg 61%
    17:00 +24°C° 0 mm 1 m/S 762 mmHg 67%
    18:00 +23°C° 0 mm 1 m/S 762 mmHg 72%
    19:00 +22°C° 0 mm 1 m/S 763 mmHg 73%
    20:00 +20°C° 0 mm 2 m/S 763 mmHg 74%
    21:00 +20°C° 0 mm 2 m/S 764 mmHg 75%
    22:00 +19°C° 0 mm 2 m/S 764 mmHg 78%
    23:00 +18°C° 0 mm 2 m/S 764 mmHg 81%

    übermorgen, 22 Januar, Mittwoch

    Zeit Temperatur Niederschläge Wind Luftdruck Luftfeuchtigkeit
    00:00 +18°C° 0 mm 1 m/S 764 mmHg 84%
    01:00 +18°C° 0 mm 1 m/S 763 mmHg 86%
    02:00 +16°C° 0 mm 1 m/S 763 mmHg 87%
    03:00 +16°C° 0 mm 1 m/S 762 mmHg 89%
    04:00 +16°C° 0 mm 1 m/S 762 mmHg 91%
    05:00 +15°C° 0 mm 1 m/S 762 mmHg 92%
    06:00 +15°C° 0 mm 1 m/S 762 mmHg 94%
    07:00 +18°C° 0 mm 1 m/S 763 mmHg 88%
    08:00 +19°C° 0 mm 1 m/S 763 mmHg 83%
    09:00 +20°C° 0 mm 2 m/S 763 mmHg 77%
    10:00 +23°C° 0 mm 1 m/S 763 mmHg 71%
    11:00 +24°C° 0 mm 1 m/S 762 mmHg 65%
    12:00 +26°C° 0 mm 1 m/S 762 mmHg 58%
    13:00 +26°C° 0 mm 1 m/S 761 mmHg 59%
    14:00 +26°C° 0 mm 1 m/S 760 mmHg 60%
    15:00 +26°C° 0 mm 1 m/S 759 mmHg 61%
    16:00 +24°C° 0 mm 1 m/S 759 mmHg 68%
    17:00 +23°C° 0 mm 1 m/S 759 mmHg 75%
    18:00 +20°C° 0 mm 2 m/S 759 mmHg 83%
    19:00 +21°C° 0 mm 1 m/S 760 mmHg 86%
    20:00 +20°C° 0 mm 1 m/S 760 mmHg 88%
    21:00 +20°C° 0 mm 1 m/S 760 mmHg 91%
    22:00 +20°C° 0 mm 1 m/S 760 mmHg 92%
    23:00 +20°C° 0 mm 1 m/S 760 mmHg 92%

    23 Januar, Donnerstag

    Zeit Temperatur Niederschläge Wind Luftdruck Luftfeuchtigkeit
    00:00 +17°C° 0 mm 0 m/S 760 mmHg 93%
    01:00 +17°C° 0 mm 0 m/S 760 mmHg 93%
    02:00 +17°C° 0 mm 0 m/S 759 mmHg 93%
    03:00 +17°C° 0 mm 0 m/S 758 mmHg 93%
    04:00 +18°C° 0 mm 0 m/S 758 mmHg 92%
    05:00 +18°C° 0 mm 0 m/S 758 mmHg 90%
    06:00 +18°C° 0 mm 0 m/S 758 mmHg 88%
    07:00 +22°C° 0 mm 1 m/S 759 mmHg 85%
    08:00 +23°C° 0 mm 1 m/S 759 mmHg 81%
    09:00 +24°C° 0 mm 1 m/S 760 mmHg 77%
    10:00 +25°C° 0.1 mm 2 m/S 759 mmHg 77%
    11:00 +25°C° 0.1 mm 2 m/S 759 mmHg 76%
    12:00 +26°C° 0.1 mm 2 m/S 759 mmHg 76%
    13:00 +26°C° 0.1 mm 2 m/S 758 mmHg 77%
    14:00 +25°C° 0.1 mm 2 m/S 758 mmHg 78%
    15:00 +25°C° 0.1 mm 2 m/S 757 mmHg 79%
    16:00 +25°C° 0.1 mm 2 m/S 757 mmHg 82%
    17:00 +24°C° 0.1 mm 2 m/S 757 mmHg 84%
    18:00 +23°C° 0.1 mm 1 m/S 757 mmHg 87%
    19:00 +22°C° 0 mm 1 m/S 758 mmHg 89%
    20:00 +22°C° 0 mm 1 m/S 758 mmHg 92%
    21:00 +21°C° 0 mm 1 m/S 759 mmHg 94%
    22:00 +21°C° 0 mm 1 m/S 759 mmHg 94%
    23:00 +19°C° 0 mm 0 m/S 759 mmHg 95%

    24 Januar, Freitag

    Zeit Temperatur Niederschläge Wind Luftdruck Luftfeuchtigkeit
    00:00 +18°C° 0 mm 0 m/S 759 mmHg 95%
    01:00 +18°C° 0 mm 0 m/S 758 mmHg 95%
    02:00 +18°C° 0 mm 0 m/S 758 mmHg 95%
    03:00 +18°C° 0 mm 0 m/S 758 mmHg 95%
    04:00 +18°C° 0 mm 0 m/S 758 mmHg 95%
    05:00 +18°C° 0 mm 0 m/S 759 mmHg 95%
    06:00 +20°C° 0 mm 1 m/S 759 mmHg 95%
    07:00 +22°C° 0 mm 1 m/S 760 mmHg 89%
    08:00 +24°C° 0 mm 1 m/S 760 mmHg 83%
    09:00 +23°C° 0 mm 0 m/S 761 mmHg 77%
    10:00 +27°C° 0.1 mm 1 m/S 760 mmHg 72%
    11:00 +28°C° 0.1 mm 1 m/S 760 mmHg 67%
    12:00 +29°C° 0.1 mm 1 m/S 760 mmHg 63%
    13:00 +29°C° 0.1 mm 1 m/S 759 mmHg 64%
    14:00 +29°C° 0.1 mm 2 m/S 759 mmHg 65%
    15:00 +28°C° 0.1 mm 2 m/S 758 mmHg 66%
    16:00 +27°C° 0.1 mm 2 m/S 758 mmHg 72%
    17:00 +25°C° 0.1 mm 2 m/S 759 mmHg 78%
    18:00 +24°C° 0.1 mm 2 m/S 759 mmHg 84%
    19:00 +23°C° 0 mm 1 m/S 759 mmHg 86%
    20:00 +22°C° 0 mm 1 m/S 760 mmHg 87%
    21:00 +22°C° 0 mm 1 m/S 761 mmHg 88%
    22:00 +22°C° 0 mm 1 m/S 761 mmHg 89%
    23:00 +21°C° 0 mm 1 m/S 761 mmHg 90%

    25 Januar, Samstag

    Zeit Temperatur Niederschläge Wind Luftdruck Luftfeuchtigkeit
    00:00 +19°C° 0 mm 0 m/S 761 mmHg 91%
    01:00 +19°C° 0 mm 0 m/S 760 mmHg 91%
    02:00 +19°C° 0 mm 0 m/S 760 mmHg 92%
    03:00 +18°C° 0 mm 0 m/S 760 mmHg 93%
    04:00 +18°C° 0 mm 0 m/S 760 mmHg 92%
    05:00 +21°C° 0 mm 1 m/S 761 mmHg 92%
    06:00 +21°C° 0 mm 1 m/S 761 mmHg 91%
    07:00 +22°C° 0 mm 1 m/S 761 mmHg 87%
    08:00 +23°C° 0 mm 1 m/S 762 mmHg 83%
    09:00 +25°C° 0 mm 1 m/S 762 mmHg 79%
    10:00 +25°C° 0.1 mm 1 m/S 762 mmHg 76%
    11:00 +26°C° 0.1 mm 1 m/S 762 mmHg 73%
    12:00 +27°C° 0.1 mm 2 m/S 761 mmHg 70%
    13:00 +27°C° 0.1 mm 2 m/S 761 mmHg 69%
    14:00 +27°C° 0.1 mm 2 m/S 760 mmHg 68%
    15:00 +27°C° 0.1 mm 2 m/S 760 mmHg 67%
    16:00 +26°C° 0 mm 2 m/S 760 mmHg 71%
    17:00 +25°C° 0 mm 1 m/S 760 mmHg 75%
    18:00 +24°C° 0 mm 1 m/S 760 mmHg 79%
    19:00 +23°C° 0 mm 1 m/S 761 mmHg 81%
    20:00 +22°C° 0 mm 1 m/S 761 mmHg 82%
    21:00 +22°C° 0 mm 1 m/S 762 mmHg 84%
    22:00 +21°C° 0 mm 1 m/S 762 mmHg 85%
    23:00 +19°C° 0 mm 0 m/S 761 mmHg 86%
    Mehr zeigen